Location: Nied?wied?
(53.3665°N, 14.8184°E)
Time: 23:25:31
(UTC+00:00)

SL-16 R/B - Pass Details

Date: 03 March 2021
Orbit: 842 x 846 km, 71.0° (Epoch: 12 April)

Event Time Altitude Azimuth Distance (km) Brightness Sun altitude
Rises 17:48:42 0° 203° (SSW) 3,391 5.6 -10.6°
Reaches altitude 10° 17:51:08 10° 202° (SSW) 2,461 4.9 -11.0°
Maximum altitude 17:56:46 76° 119° (ESE) 877 2.1 -11.8°
Drops below altitude 10° 18:02:27 10° 34° (NE) 2,479 4.4 -12.7°
Sets 18:04:54 0° 33° (NNE) 3,418 5.1 -13.0°
